Weather History for PAIK - March, 2013

Change the Weather History Date:

Thursday, March 7, 2013

  Actual Average (PASK) Record (PASK)
Temperature  
Mean Temperature 24 °F -  
Max Temperature 26 °F 3 °F 30 °F (2015)
Min Temperature 19 °F -5 °F -34 °F (2007)
Degree Days  
Heating Degree Days 40    
Moisture  
Dew Point 21 °F    
Average Humidity 85    
Maximum Humidity 93    
Minimum Humidity 64    
Precipitation  
Precipitation 0.00 in - - ()
Sea Level Pressure  
Sea Level Pressure 29.60 in    
Wind  
Wind Speed 10 mph (East)    
Max Wind Speed 23 mph    
Max Gust Speed 37 mph    
Visibility 8 miles    
Events Snow    
Averages and records for this station are not official NWS values.
T = Trace of Precipitation, MM = Missing Value Source: NWS Daily Summary

Daily Weather History Graph

Daily Weather History Graph

Search for Another Location

Airport or City:

Trip Planner

Search our weather history database for the weather conditions in past years. The results will help you decide how hot, cold, wet, or windy it might be!

Date:

Astronomy

Mar. 07, 2013 Rise Set
Actual Time 8:31 AM AKST 7:15 PM AKST
Civil Twilight 7:38 AM AKST 8:08 PM AKST
Nautical Twilight 6:36 AM AKST 9:10 PM AKST
Astronomical Twilight 5:29 AM AKST 10:18 PM AKST
Moon 7:21 AM AKST (3/7) 1:41 PM AKST (3/7)
Length of Visible Light 12h 29m
Length of Day
10h 43m
Waning Crescent, 19% of the Moon is Illuminated
Mar 7
Waning Crescent
Mar 11
New
Mar 19
First Quarter
Mar 27
Full
Apr 2
Last Quarter

Hourly Weather History & Observations

Time (AKST) Temp. Windchill Dew Point Humidity Pressure Visibility Wind Dir Wind Speed Gust Speed Precip Events Conditions
12:01 AM 21.9 °F 14.5 °F 18.0 °F 85% 29.95 in 9.0 mi East 5.8 mph - 0.00 in Snow Light Snow
1:01 AM 21.9 °F 13.4 °F 18.0 °F 85% 29.94 in 9.0 mi East 6.9 mph - 0.00 in Snow Light Snow
2:01 AM 21.0 °F 12.4 °F 18.0 °F 88% 29.92 in 10.0 mi East 6.9 mph - 0.00 in   Overcast
2:22 AM 19.4 °F - 17.6 °F 93% 29.79 in 10.0 mi Calm Calm - N/A   Overcast
3:01 AM 19.9 °F 12.1 °F 18.0 °F 92% 29.91 in 10.0 mi ENE 5.8 mph - N/A   Overcast
3:54 AM 21.2 °F 13.6 °F 19.4 °F 93% 29.76 in 10.0 mi ENE 5.8 mph - N/A   Overcast
4:01 AM 21.9 °F 13.4 °F 19.0 °F 89% 29.88 in 10.0 mi ENE 6.9 mph - N/A   Overcast
4:50 AM 21.2 °F 10.9 °F 17.6 °F 86% 29.74 in 10.0 mi East 9.2 mph 17.3 mph N/A   Overcast
5:01 AM 21.0 °F 10.6 °F 18.0 °F 88% 29.87 in 10.0 mi East 9.2 mph - N/A   Overcast
6:01 AM 21.0 °F 9.3 °F 18.0 °F 88% 29.82 in 10.0 mi East 11.5 mph 19.6 mph N/A   Mostly Cloudy
6:34 AM 21.2 °F 11.7 °F 17.6 °F 86% 29.67 in 10.0 mi NE 8.1 mph 19.6 mph N/A   Mostly Cloudy
7:01 AM 23.0 °F 13.1 °F 19.0 °F 85% 29.78 in 10.0 mi East 9.2 mph 23.0 mph N/A   Partly Cloudy
8:01 AM 21.9 °F 9.8 °F 19.0 °F 89% 29.75 in 10.0 mi East 12.7 mph 18.4 mph 0.00 in   Partly Cloudy
9:01 AM 21.9 °F 13.4 °F 19.0 °F 89% 29.72 in 10.0 mi Variable 6.9 mph - 0.00 in   Overcast
10:01 AM 21.9 °F 10.4 °F 19.0 °F 89% 29.71 in 10.0 mi East 11.5 mph 18.4 mph 0.00 in   Overcast
11:01 AM 25.0 °F 14.2 °F 19.9 °F 81% 29.69 in 10.0 mi East 11.5 mph 19.6 mph N/A   Mostly Cloudy
12:01 PM 26.1 °F 15.0 °F 19.9 °F 78% 29.65 in 10.0 mi ENE 12.7 mph - N/A   Clear
1:01 PM 27.0 °F 18.0 °F 19.9 °F 75% 29.62 in 10.0 mi East 9.2 mph - N/A   Partly Cloudy
2:01 PM 28.9 °F 18.6 °F 19.9 °F 69% 29.57 in 10.0 mi ENE 12.7 mph 19.6 mph N/A   Partly Cloudy
3:01 PM 30.0 °F 19.1 °F 21.0 °F 69% 29.53 in 10.0 mi East 15.0 mph 24.2 mph N/A   Scattered Clouds
4:01 PM 28.9 °F 15.1 °F 21.0 °F 72% 29.48 in 10.0 mi East 23.0 mph 36.8 mph N/A   Overcast
5:01 PM 30.0 °F 19.1 °F 21.0 °F 69% 29.49 in 10.0 mi ESE 15.0 mph 27.6 mph N/A   Overcast
6:01 PM 30.0 °F 18.3 °F 21.0 °F 69% 29.47 in 10.0 mi East 17.3 mph 28.8 mph N/A   Overcast
7:01 PM 30.9 °F 21.2 °F 19.9 °F 64% 29.47 in 10.0 mi East 12.7 mph 19.6 mph 0.00 in   Overcast
7:38 PM 30.2 °F 17.8 °F 21.2 °F 69% 29.36 in 4.0 mi East 19.6 mph 32.2 mph 0.00 in Snow Light Snow
7:46 PM 28.4 °F 16.6 °F 24.8 °F 86% 29.37 in 2.0 mi East 16.1 mph 31.1 mph 0.00 in Snow Light Snow
7:49 PM 28.4 °F 16.6 °F 24.8 °F 86% 29.37 in 1.8 mi East 16.1 mph 26.5 mph 0.00 in Snow Light Snow
8:01 PM 27.0 °F 14.7 °F 25.0 °F 92% 29.51 in 1.2 mi East 16.1 mph 24.2 mph 0.00 in Snow Light Snow
8:31 PM 26.6 °F 14.3 °F 24.8 °F 93% 29.37 in 3.0 mi East 16.1 mph 23.0 mph 0.00 in Snow Light Snow
8:43 PM 26.6 °F 14.3 °F 24.8 °F 93% 29.36 in 5.0 mi East 16.1 mph 25.3 mph 0.00 in Snow Light Snow
8:53 PM 26.6 °F 13.8 °F 24.8 °F 93% 29.37 in 6.0 mi East 17.3 mph 28.8 mph 0.00 in Snow Light Snow
9:01 PM 27.0 °F 14.7 °F 24.1 °F 89% 29.50 in 5.0 mi East 16.1 mph 24.2 mph 0.00 in Snow Light Snow
9:03 PM 26.6 °F 14.3 °F 24.8 °F 93% 29.37 in 4.0 mi East 16.1 mph 24.2 mph 0.00 in Snow Light Snow
9:23 PM 26.6 °F 15.2 °F 24.8 °F 93% 29.37 in 6.0 mi East 13.8 mph 21.9 mph 0.00 in Snow Light Snow
10:01 PM 27.0 °F 14.3 °F 23.0 °F 85% 29.50 in 9.0 mi East 17.3 mph 25.3 mph 0.00 in Snow Light Snow
10:20 PM 26.6 °F 16.2 °F 23.0 °F 86% 29.38 in 8.0 mi East 11.5 mph - 0.00 in Snow Light Snow
10:52 PM 26.6 °F 16.2 °F 23.0 °F 86% 29.38 in 5.0 mi ENE 11.5 mph 18.4 mph 0.00 in Snow Light Snow
11:01 PM 26.1 °F 17.6 °F 23.0 °F 88% 29.50 in 5.0 mi ENE 8.1 mph - 0.00 in Snow Light Snow
11:13 PM 26.6 °F 18.2 °F 24.8 °F 93% 29.38 in 4.0 mi ENE 8.1 mph - 0.00 in Snow Light Snow